Location: Lafig�re
(44.4503°N, 4.0357°E)
Time: 00:17:57
(UTC+00:00)

Transit 4A - Pass Details

Date: 21 January 2021
Orbit: 866 x 979 km, 66.8° (Epoch: 24 February)

Event Time Altitude Azimuth Distance (km) Brightness Sun altitude
Rises 20:43:14 0° 243° (WSW) 3,669 11.5 -43.3°
Reaches altitude 10° 20:46:05 10° 253° (WSW) 2,727 10.8 -43.8°
Enters shadow 20:48:32 21° 269° (W) 2,036 10.1 -44.2°
Maximum altitude 20:51:45 32° 316° (NW) 1,600 - -44.7°
Drops below altitude 10° 20:57:25 10° 18° (NNE) 2,716 - -45.7°
Sets 21:00:16 0° 29° (NNE) 3,653 - -46.2°
